Terug naar catalogus

THORAD DELTA 1 DEB

ActiefSSO
NORAD 8145·DEBRIS·🇺🇸 United States

Gelanceerd Nov 15, 1974 vanaf Vandenberg Space Force Base

Loading…

Volgende Passages (komende 24 uur)

TLE

VersSource: Space-Track

Epoch: Sep 14, 2026, 03:03 UTC

1 08145U 74089P   26257.12747632  .00000056  00000-0  55786-3 0  9995
2 08145 101.0786  98.7239 0027344 321.5642 160.2322 12.60663707381460

Volg THORAD DELTA 1 DEB in realtime met AllMySat

Download on the App Store